Albert Lea, MN

8:53 PM CST on February 19, 2018 (GMT -0600)
Albert Lea Municipal

Weather History for KAEL - May, 2013

Change the Weather History Date:

Saturday, May 4, 2013

  Actual Average Record
Temperature  
Mean Temperature 38 °F -  
Max Temperature 42 °F 63 °F 84 °F (2000)
Min Temperature 33 °F 43 °F 30 °F (2005)
Degree Days  
Heating Degree Days 28    
Moisture  
Dew Point 35 °F    
Average Humidity 88    
Maximum Humidity 93    
Minimum Humidity 76    
Precipitation  
Precipitation 0.01 in - - ()
Sea Level Pressure  
Sea Level Pressure 30.07 in    
Wind  
Wind Speed 12 mph (North)    
Max Wind Speed 17 mph    
Max Gust Speed 21 mph    
Visibility 7 miles    
Events Thunderstorm    
Averages and records for this station are not official NWS values.
T = Trace of Precipitation, MM = Missing Value Source: NWS Daily Summary

Daily Weather History Graph

Daily Weather History Graph

Search for Another Location

Airport or City:

Trip Planner

Search our weather history database for the weather conditions in past years. The results will help you decide how hot, cold, wet, or windy it might be!

Date:

Astronomy

May. 04, 2013 Rise Set
Actual Time 6:01 AM CDT 8:19 PM CDT
Civil Twilight 5:29 AM CDT 8:51 PM CDT
Nautical Twilight 4:50 AM CDT 9:31 PM CDT
Astronomical Twilight 4:06 AM CDT 10:15 PM CDT
Moon 3:10 AM CDT (5/4) 3:09 PM CDT (5/4)
Length of Visible Light 15h 22m
Length of Day
14h 18m
Waning Crescent, 27% of the Moon is Illuminated
May 4
Waning Crescent
May 9
New
May 17
First Quarter
May 24
Full
May 31
Last Quarter

Hourly Weather History & Observations

Time (CDT) Temp. Windchill Dew Point Humidity Pressure Visibility Wind Dir Wind Speed Gust Speed Precip Events Conditions
12:13 AM 33.8 °F 23.5 °F 30.2 °F 87% 30.07 in 10.0 mi North 16.1 mph - N/A   Overcast
12:33 AM 33.8 °F 23.2 °F 30.2 °F 87% 30.06 in 10.0 mi North 17.3 mph - N/A   Overcast
12:53 AM 33.8 °F 23.9 °F 30.2 °F 87% 30.05 in 10.0 mi North 15.0 mph - N/A   Overcast
1:13 AM 33.8 °F 24.3 °F 30.2 °F 87% 30.05 in 10.0 mi North 13.8 mph - N/A   Overcast
1:33 AM 33.8 °F 24.8 °F 30.2 °F 87% 30.05 in 10.0 mi North 12.7 mph - N/A   Overcast
1:53 AM 33.8 °F 24.3 °F 30.2 °F 87% 30.06 in 10.0 mi NNE 13.8 mph - N/A Thunderstorm Overcast
2:13 AM 33.8 °F 23.5 °F 30.2 °F 87% 30.04 in 5.0 mi North 16.1 mph 20.7 mph N/A   Overcast
2:33 AM 33.8 °F 24.3 °F 32.0 °F 93% 30.04 in 2.5 mi North 13.8 mph - N/A   Overcast
2:53 AM 33.8 °F 23.9 °F 32.0 °F 93% 30.04 in 5.0 mi North 15.0 mph - N/A   Overcast
3:13 AM 33.8 °F 24.3 °F 32.0 °F 93% 30.03 in 7.0 mi NNE 13.8 mph - 0.01 in   Overcast
3:33 AM 33.8 °F 23.5 °F 32.0 °F 93% 30.01 in 10.0 mi North 16.1 mph 20.7 mph 0.01 in   Overcast
3:53 AM 33.8 °F 24.3 °F 32.0 °F 93% 30.02 in 10.0 mi NNE 13.8 mph - N/A   Overcast
4:13 AM 33.8 °F 24.3 °F 32.0 °F 93% 30.03 in 10.0 mi NNE 13.8 mph - N/A   Overcast
4:33 AM 33.8 °F 24.3 °F 32.0 °F 93% 30.03 in 10.0 mi NNE 13.8 mph - N/A   Overcast
4:53 AM 33.8 °F 24.3 °F 32.0 °F 93% 30.03 in 10.0 mi NNE 13.8 mph - N/A   Overcast
5:13 AM 33.8 °F 24.8 °F 32.0 °F 93% 30.03 in 7.0 mi NNE 12.7 mph - N/A   Overcast
5:33 AM 33.8 °F 25.3 °F 32.0 °F 93% 30.02 in 10.0 mi NNE 11.5 mph 18.4 mph N/A   Overcast
5:53 AM 33.8 °F 25.8 °F 32.0 °F 93% 30.02 in 10.0 mi NNE 10.4 mph - N/A   Overcast
6:13 AM 33.8 °F 25.3 °F 32.0 °F 93% 30.03 in 10.0 mi NNE 11.5 mph - N/A   Overcast
6:33 AM 33.8 °F 25.8 °F 32.0 °F 93% 30.03 in 10.0 mi NNE 10.4 mph - N/A   Overcast
6:53 AM 33.8 °F 25.3 °F 32.0 °F 93% 30.04 in 10.0 mi NNE 11.5 mph - N/A   Overcast
7:13 AM 33.8 °F 25.3 °F 32.0 °F 93% 30.04 in 10.0 mi North 11.5 mph - N/A   Overcast
7:33 AM 35.6 °F 27.5 °F 32.0 °F 87% 30.04 in 7.0 mi North 11.5 mph - N/A   Overcast
7:53 AM 35.6 °F 27.5 °F 33.8 °F 93% 30.04 in 7.0 mi North 11.5 mph - N/A   Overcast
8:13 AM 35.6 °F 27.1 °F 33.8 °F 93% 30.05 in 5.0 mi NNE 12.7 mph - N/A   Overcast
8:33 AM 35.6 °F 26.6 °F 33.8 °F 93% 30.04 in 10.0 mi NNE 13.8 mph - N/A   Overcast
8:53 AM 35.6 °F 27.5 °F 33.8 °F 93% 30.04 in 7.0 mi NNE 11.5 mph - N/A   Overcast
9:13 AM 35.6 °F 27.1 °F 33.8 °F 93% 30.04 in 7.0 mi NNE 12.7 mph - N/A   Overcast
9:33 AM 35.6 °F 26.2 °F 33.8 °F 93% 30.05 in 5.0 mi NNE 15.0 mph - N/A   Overcast
9:53 AM 35.6 °F 26.2 °F 33.8 °F 93% 30.05 in 3.0 mi NNE 15.0 mph - N/A   Overcast
10:13 AM 35.6 °F 27.5 °F 33.8 °F 93% 30.06 in 4.0 mi NNE 11.5 mph - N/A   Overcast
10:33 AM 35.6 °F 27.5 °F 33.8 °F 93% 30.06 in 5.0 mi NNE 11.5 mph - N/A   Overcast
10:53 AM 37.4 °F 28.9 °F 35.6 °F 93% 30.05 in 7.0 mi North 13.8 mph - N/A   Overcast
11:13 AM 37.4 °F 30.3 °F 35.6 °F 93% 30.08 in 7.0 mi NE 10.4 mph - N/A   Overcast
11:33 AM 37.4 °F 31.4 °F 35.6 °F 93% 30.08 in 7.0 mi NNE 8.1 mph - N/A   Overcast
11:53 AM 37.4 °F 30.3 °F 35.6 °F 93% 30.09 in 7.0 mi NE 10.4 mph - N/A   Overcast
12:13 PM 37.4 °F 30.8 °F 35.6 °F 93% 30.09 in 7.0 mi NNE 9.2 mph - N/A   Overcast
12:38 PM 37.4 °F 30.3 °F 35.6 °F 93% 30.09 in 7.0 mi NNE 10.4 mph - N/A   Overcast
12:53 PM 37.4 °F 30.3 °F 35.6 °F 93% 30.09 in 7.0 mi NNE 10.4 mph - N/A   Overcast
1:13 PM 39.2 °F 33.6 °F 35.6 °F 87% 30.08 in 7.0 mi North 8.1 mph - N/A   Mostly Cloudy
1:33 PM 39.2 °F 33.0 °F 35.6 °F 87% 30.08 in 7.0 mi North 9.2 mph - N/A   Scattered Clouds
1:53 PM 39.2 °F 33.0 °F 35.6 °F 87% 30.08 in 7.0 mi North 9.2 mph - N/A   Mostly Cloudy
2:12 PM 39.2 °F 31.6 °F 35.6 °F 87% 30.08 in 5.0 mi North 12.7 mph - N/A   Mostly Cloudy
2:33 PM 39.2 °F 33.0 °F 35.6 °F 87% 30.08 in 5.0 mi North 9.2 mph - N/A   Overcast
2:53 PM 39.2 °F 32.5 °F 35.6 °F 87% 30.09 in 4.0 mi North 10.4 mph - N/A   Haze
3:13 PM 39.2 °F 33.0 °F 35.6 °F 87% 30.09 in 7.0 mi North 9.2 mph - N/A   Scattered Clouds
3:33 PM 41.0 °F 35.2 °F 35.6 °F 81% 30.09 in 7.0 mi North 9.2 mph - N/A   Mostly Cloudy
3:53 PM 41.0 °F 35.8 °F 35.6 °F 81% 30.08 in 7.0 mi North 8.1 mph - N/A   Overcast
4:12 PM 41.0 °F 35.2 °F 35.6 °F 81% 30.08 in 7.0 mi North 9.2 mph - N/A   Scattered Clouds
4:33 PM 41.0 °F 34.7 °F 35.6 °F 81% 30.07 in 7.0 mi North 10.4 mph - N/A   Mostly Cloudy
4:53 PM 41.0 °F 34.7 °F 35.6 °F 81% 30.07 in 10.0 mi North 10.4 mph - N/A   Overcast
5:13 PM 42.8 °F 38.0 °F 35.6 °F 76% 30.08 in 10.0 mi North 8.1 mph - N/A   Overcast
5:32 PM 42.8 °F 39.3 °F 35.6 °F 76% 30.08 in 10.0 mi North 5.8 mph - N/A   Overcast
5:53 PM 42.8 °F 37.5 °F 35.6 °F 76% 30.08 in 10.0 mi NNE 9.2 mph - N/A   Overcast
6:13 PM 42.8 °F 38.0 °F 37.4 °F 81% 30.09 in 10.0 mi North 8.1 mph - N/A   Overcast
6:33 PM 42.8 °F 40.1 °F 37.4 °F 81% 30.09 in 10.0 mi North 4.6 mph - N/A   Overcast
6:53 PM 42.8 °F 39.3 °F 37.4 °F 81% 30.09 in 10.0 mi North 5.8 mph - N/A   Overcast
7:13 PM 42.8 °F 39.3 °F 37.4 °F 81% 30.09 in 7.0 mi North 5.8 mph - N/A   Overcast
7:33 PM 42.8 °F 38.0 °F 37.4 °F 81% 30.09 in 5.0 mi North 8.1 mph - N/A   Overcast
7:53 PM 42.8 °F 38.6 °F 39.2 °F 87% 30.10 in 4.0 mi North 6.9 mph - N/A   Overcast
8:13 PM 42.8 °F 39.3 °F 39.2 °F 87% 30.11 in 4.0 mi North 5.8 mph - N/A   Scattered Clouds
8:33 PM 42.8 °F 39.3 °F 39.2 °F 87% 30.10 in 5.0 mi North 5.8 mph - N/A   Clear
8:53 PM 42.8 °F 38.6 °F 39.2 °F 87% 30.11 in 5.0 mi North 6.9 mph - N/A   Clear
9:13 PM 42.8 °F 38.6 °F 39.2 °F 87% 30.11 in 5.0 mi North 6.9 mph - N/A   Clear
9:33 PM 42.8 °F 38.6 °F 39.2 °F 87% 30.11 in 5.0 mi North 6.9 mph - N/A   Clear
9:53 PM 42.8 °F 38.6 °F 39.2 °F 87% 30.11 in 7.0 mi North 6.9 mph - N/A   Scattered Clouds
10:13 PM 42.8 °F 38.6 °F 39.2 °F 87% 30.11 in 7.0 mi North 6.9 mph - N/A   Mostly Cloudy
10:33 PM 42.8 °F 39.3 °F 39.2 °F 87% 30.12 in 7.0 mi North 5.8 mph - N/A   Overcast
10:53 PM 42.8 °F 40.1 °F 39.2 °F 87% 30.12 in 7.0 mi NNW 4.6 mph - N/A   Overcast
11:13 PM 42.8 °F 39.3 °F 37.4 °F 81% 30.12 in 7.0 mi North 5.8 mph - N/A   Mostly Cloudy
11:33 PM 41.0 °F 37.1 °F 37.4 °F 87% 30.13 in 7.0 mi North 5.8 mph - N/A   Mostly Cloudy
11:53 PM 41.0 °F 35.8 °F 37.4 °F 87% 30.13 in 7.0 mi North 8.1 mph - N/A   Scattered Clouds